THOR ABLESTAR DEB, 336

Orbit data source: Space-Track

THOR ABLESTAR DEB, 336 is space debris in LEO originally from a launch on Thu, 29 Jun 1961 UTC launched from the Air Force Eastern Test Range (AFETR). Debris objects in space refer to the collection of defunct objects orbiting the Earth. Examples of debris include non-operational satellites, rocket bodies, and fragments generated from explosions, collisions, or faulty payload assembly.

Loading next visibility...
Identifier
336, 1961-015DN
Orbit
LEO
Last TLE update
2 days ago
Origin
Manufacturer
Unknown
Mission
Spacecraft
Bus & Motor
Unknown
Mass
Unknown
Launch date (UTC)
1961-06-29 (64 years ago)
Launch vehicle
Unknown
Launch site
Air Force Eastern Test Range (AFETR)
Object type
Payload
Rocket body
Debris
Shape & HBR
Unknown
Radar Cross Section
Small (<0.1 m²)

Expand to show TLE details & history

TLE from 2 days ago
0 THOR ABLESTAR DEB
1 00336U 61015DN  25118.88381049  .00000214  00000-0  32295-3 0  9994
2 00336  67.0296  80.1362 0072043  70.3807 320.2668 13.69070720182480
Epoch: 2025-04-28T21:12Z
Definitive object data (Epoch: 2025-04-28T21:12:41.226Z)
Latitude
27.56881°
Longitude
-82.40951°
Altitude
964.716 km
Speed
7.392 km/s
True Right ascension
06h 11m 24s
True Declination
27° 25' 55"
Sunlit
Object was in daylight at TLE epoch
Visualization TLE readout
Latitude
-0.9519°
Longitude
80.43643°
Altitude
1,024.721 km
Speed
7.33 km/s
Apparent Right ascension
17h 40m 33s
Apparent Declination
-19° 11' 25"
Sunlit
Object is in full shadow
Visualization observer readout
Local Sidereal Time
06:37:56
Azimuth
34.938° NE
Elevation
-65.88°
Doppler factor
1
Orbital elements
Apogee altitude
1,054.457 km
Perigee altitude
948.13 km
Semi-major axis
7,379.43 km
Eccentricity
0.0072043
Inclination
67.0296°
RAAN
80.1362°
Arg. of periapsis
70.3807°
True anomaly
319.73542°
Mean anomaly
320.2668°
Eccentric anomaly
320.00148°
Mean motion
3.4238 °/min
BSTAR
0.00032295
Orbital period
105.15 mins
Loading maneuver chart data...
Loading SW <> Apogee altitude chart data...

THOR ABLESTAR DEB Visibility forecast

Observer location: undefined°, undefined°

Span
Click to sort rows by Start time (UTC) header in descending order
Start Az.
Max El. time (UTC)
Max El. Az.
Max El.
End time (UTC)
End Az.
9 mins2025-05-01 00:05:51.907Z262.784° W2025-05-01 00:09:51.907Z309.28° NW23.63°2025-05-01 00:14:51.907Z6.306° NNE
4 mins2025-05-01 05:42:51.907Z19.352° NNE2025-05-01 05:44:51.907Z39.687° NE13.222°2025-05-01 05:46:51.907Z59.407° ENE
11 mins2025-05-01 07:28:51.907Z339.438° N2025-05-01 07:33:51.907Z50.397° ENE41.675°2025-05-01 07:39:51.907Z138.59° SSE
7 mins2025-05-01 09:18:51.907Z287.25° WNW2025-05-01 09:21:51.907Z251.73° W19.964°2025-05-01 09:25:51.907Z210.958° SW
7 mins2025-05-01 21:04:51.907Z139.459° SSE2025-05-01 21:07:51.907Z106.36° ESE18.556°2025-05-01 21:11:51.907Z63.545° ENE
10 mins2025-05-01 22:50:51.907Z222.297° SW2025-05-01 22:55:51.907Z319.543° NNW42.002°2025-05-01 23:00:51.907Z21.918° NNE
|